FENGYUN 1C DEB, 30913

Orbit data source: Space-Track

FENGYUN 1C DEB, 30913 is space debris in SSO originally from a launch on Mon, 10 May 1999 UTC launched from the Taiyaun Space Center, China (TSC). Fengyun 1C debris stems from the Chinese weather satellite Fengyun-1C, which was intentionally destroyed by a Chinese anti-satellite missile in 2007. This event dramatically increased the amount of space debris, with thousands of trackable fragments posing hazards to satellites and human spaceflight. The Fengyun 1C debris cloud has become a focal point in discussions about space sustainability and the need for international regulations to prevent the creation of new debris.

Loading next visibility...
Identifier
30913, 1999-025AZB
Orbit
SSO
Country
Flag of CNCN / PRC
Related business
Manufacturer
Unknown
Mission
Spacecraft
Bus & Motor
Unknown
Mass
Unknown
Launch date (UTC)
1999-05-10 (27 years ago)
Launch vehicle
Unknown
Launch site
Taiyaun Space Center, China (TSC)
Object type
Payload
Rocket body
Debris
Shape & HBR
Unknown shape, 0.1 m
Radar Cross Section
Medium (>0.1 m² and <1 m²)

Expand to show TLE details & history
Last TLE update: 2 days ago

TLE from 2 days ago
0 FENGYUN 1C DEB
1 30913U 99025AZB 26174.30496028  .00000503  00000-0  33321-3 0  9996
2 30913  98.7264 199.1997 0047845   3.3562 356.7919 14.05317616986227
Epoch: 2026-06-23T07:19Z
TLE epoch observation values (Epoch: 2026-06-23T07:19:08.568Z)
Latitude
0.00007°
Longitude
177.93555°
Altitude
843.676 km
Speed
7.449 km/s
True Right ascension
13h 16m 47s
True Declination
0° 00' 00"
Sunlit
Object was in daylight at epoch
Visualization orbit readout
Latitude
Unknown
Longitude
Unknown
Altitude
Unknown
Speed
Unknown
Apparent Right ascension
Unknown
Apparent Declination
Unknown
Sunlit
N/A
Visualization observer readout
Local Sidereal Time
19:24:37
Azimuth
Unknown
Elevation
Unknown
Doppler factor
Unknown
Orbital elements
Apogee altitude
907.309 km
Perigee altitude
837.927 km
Semi-major axis
7,250.755 km
Eccentricity
0.00478
Inclination
98.7264°
RAAN
199.1997°
Arg. of periapsis
3.3562°
True anomaly
356.76103°
Mean anomaly
356.7919°
Eccentric anomaly
356.77649°
Mean motion
3.51535 °/min
Orbital period
102.41 mins
BSTAR
0.00033321
Loading maneuver chart data...
Computing Atmospheric mass density...

Documentation

Showing up to 5 results
|